Waukesha, WI

11:36 AM CDT on April 26, 2018 (GMT -0500)
Waukesha County

Weather History for KUES - November, 2012

Change the Weather History Date:

Saturday, November 10, 2012

  Actual Average Record
Temperature  
Mean Temperature 53 °F -  
Max Temperature 62 °F 45 °F 64 °F (1949)
Min Temperature 44 °F 30 °F 10 °F (2017)
Degree Days  
Heating Degree Days 12    
Growing Degree Days 3 (Base 50)    
Moisture  
Dew Point 47 °F    
Average Humidity 78    
Maximum Humidity 100    
Minimum Humidity 55    
Precipitation  
Precipitation 0.00 in - - ()
Sea Level Pressure  
Sea Level Pressure 29.91 in    
Wind  
Wind Speed 10 mph (SE)    
Max Wind Speed 17 mph    
Max Gust Speed 29 mph    
Visibility 8 miles    
Events      
Averages and records for this station are not official NWS values.
T = Trace of Precipitation, MM = Missing Value Source: NWS Daily Summary

Daily Weather History Graph

Daily Weather History Graph

Search for Another Location

Airport or City:

Astronomy

Nov. 10, 2012 Rise Set
Actual Time 6:39 AM CST 4:33 PM CST
Civil Twilight 6:09 AM CST 5:03 PM CST
Nautical Twilight 5:35 AM CST 5:37 PM CST
Astronomical Twilight 5:01 AM CST 6:11 PM CST
Moon 2:39 AM CST (11/10) 2:24 PM CST (11/10)
Length of Visible Light 10h 54m
Length of Day
9h 53m
Waning Crescent, 14% of the Moon is Illuminated
Nov 10
Waning Crescent
Nov 13
New
Nov 20
First Quarter
Nov 28
Full
Dec 6
Last Quarter

Hourly Weather History & Observations

Time (CST) Temp. Windchill Dew Point Humidity Pressure Visibility Wind Dir Wind Speed Gust Speed Precip Events Conditions
12:15 AM 44.6 °F 39.7 °F 42.8 °F 93% 30.02 in 5.0 mi ENE 9.2 mph - N/A   Overcast
12:35 AM 44.6 °F 40.7 °F 42.8 °F 93% 30.03 in 5.0 mi NE 6.9 mph - N/A   Overcast
12:55 AM 44.6 °F 41.4 °F 42.8 °F 93% 30.03 in 5.0 mi ENE 5.8 mph - N/A   Overcast
1:15 AM 44.6 °F 39.2 °F 42.8 °F 93% 30.01 in 5.0 mi NE 10.4 mph - N/A   Overcast
1:35 AM 44.6 °F 40.7 °F 42.8 °F 93% 30.02 in 5.0 mi ENE 6.9 mph - N/A   Overcast
1:55 AM 44.6 °F 42.2 °F 42.8 °F 93% 30.01 in 5.0 mi ENE 4.6 mph - N/A   Overcast
2:15 AM 44.6 °F 39.2 °F 42.8 °F 93% 30.00 in 5.0 mi ENE 10.4 mph - N/A   Overcast
2:35 AM 44.6 °F 40.2 °F 42.8 °F 93% 30.01 in 5.0 mi ENE 8.1 mph - N/A   Overcast
2:55 AM 44.6 °F 39.7 °F 42.8 °F 93% 30.00 in 4.0 mi ENE 9.2 mph - N/A   Overcast
3:15 AM 44.6 °F 43.1 °F 42.8 °F 93% 30.00 in 4.0 mi ENE 3.5 mph - N/A   Overcast
3:35 AM 44.6 °F 41.4 °F 42.8 °F 93% 30.00 in 4.0 mi ENE 5.8 mph - N/A   Overcast
3:55 AM 44.6 °F 41.4 °F 42.8 °F 93% 29.99 in 4.0 mi ENE 5.8 mph - N/A   Overcast
4:15 AM 44.6 °F 41.4 °F 42.8 °F 93% 29.98 in 4.0 mi ENE 5.8 mph - N/A   Overcast
4:35 AM 44.6 °F 42.2 °F 44.6 °F 100% 29.98 in 4.0 mi East 4.6 mph - N/A   Overcast
5:45 AM 48.2 °F - 46.4 °F 93% 29.98 in 7.0 mi ESE 8.1 mph - N/A   Overcast
6:45 AM 48.2 °F - 46.4 °F 93% 29.95 in 4.0 mi East 6.9 mph - N/A   Overcast
7:45 AM 50.0 °F - 46.4 °F 87% 29.95 in 4.0 mi ESE 5.8 mph - N/A   Overcast
8:45 AM 51.8 °F - 48.2 °F 88% 29.95 in 7.0 mi SSE 9.2 mph - N/A   Overcast
9:45 AM 53.6 °F - 48.2 °F 82% 29.92 in 7.0 mi SSE 12.7 mph - N/A   Overcast
10:45 AM 57.2 °F - 51.8 °F 82% 29.91 in 10.0 mi SSE 12.7 mph 18.4 mph N/A   Overcast
11:45 AM 60.8 °F - 51.8 °F 72% 29.90 in 10.0 mi South 12.7 mph 20.7 mph N/A   Overcast
12:45 PM 60.8 °F - 50.0 °F 68% 29.85 in 10.0 mi South 9.2 mph - N/A   Scattered Clouds
1:45 PM 62.6 °F - 51.8 °F 68% 29.82 in 10.0 mi South 15.0 mph 21.9 mph N/A   Scattered Clouds
2:45 PM 51.8 °F - 51.8 °F 100% 29.81 in 10.0 mi South 12.7 mph 19.6 mph N/A   Scattered Clouds
3:45 PM 62.6 °F - 51.8 °F 68% 29.83 in 10.0 mi South 16.1 mph - N/A   Scattered Clouds
4:45 PM 60.8 °F - 53.6 °F 77% 29.85 in 10.0 mi South 15.0 mph - N/A   Scattered Clouds
5:45 PM 62.6 °F - 53.6 °F 72% 29.86 in 10.0 mi South 12.7 mph - N/A   Mostly Cloudy
6:45 PM 62.6 °F - 53.6 °F 72% 29.84 in 10.0 mi South 10.4 mph - N/A   Scattered Clouds
7:45 PM 62.6 °F - 51.8 °F 68% 29.83 in 10.0 mi South 12.7 mph - N/A   Clear
8:15 PM 62.6 °F - 48.2 °F 59% 29.83 in 10.0 mi South 13.8 mph 24.2 mph N/A   Clear
8:35 PM 62.6 °F - 46.4 °F 55% 29.84 in 10.0 mi South 16.1 mph 25.3 mph N/A   Clear
8:45 PM 62.6 °F - 46.4 °F 55% 29.84 in 10.0 mi South 12.7 mph - N/A   Clear
8:55 PM 60.8 °F - 46.4 °F 59% 29.84 in 10.0 mi South 13.8 mph 21.9 mph N/A   Clear
9:15 PM 60.8 °F - 46.4 °F 59% 29.84 in 10.0 mi South 17.3 mph 23.0 mph N/A   Clear
9:35 PM 60.8 °F - 46.4 °F 59% 29.84 in 10.0 mi South 16.1 mph 26.5 mph N/A   Clear
9:55 PM 60.8 °F - 46.4 °F 59% 29.84 in 10.0 mi SSW 10.4 mph 20.7 mph N/A   Clear
10:15 PM 60.8 °F - 46.4 °F 59% 29.83 in 10.0 mi South 10.4 mph 19.6 mph N/A   Clear
10:35 PM 60.8 °F - 48.2 °F 63% 29.82 in 10.0 mi South 15.0 mph 23.0 mph N/A   Scattered Clouds
10:55 PM 60.8 °F - 48.2 °F 63% 29.83 in 10.0 mi South 15.0 mph 26.5 mph N/A   Scattered Clouds
11:15 PM 60.8 °F - 48.2 °F 63% 29.83 in 10.0 mi South 11.5 mph 28.8 mph N/A   Clear
11:35 PM 59.0 °F - 48.2 °F 67% 29.83 in 10.0 mi South 12.7 mph 23.0 mph N/A   Clear
11:55 PM 59.0 °F - 48.2 °F 67% 29.83 in 10.0 mi South 13.8 mph 21.9 mph N/A   Clear